User: anonymous   Login
Location: Campillo
(40.8621°N, 4.2488°W)
Time: 23:27:28
(UTC+00:00)
Language:

Cosmos 1470 Rocket - Orbit

View from above orbital plane
View from above orbital plane
View from above satellite
View from above satellite

Ground track
Ground track

The orbit data is extracted from the following two-line orbital elements,

1 14148U 83061B   21217.32293970  .00000069  00000-0  54708-5 0  9998
2 14148  82.5197 295.0319 0022486  38.4626  29.3545 14.83388224 37575
Epoch (UTC): 05 August 2021 07:45:01
Eccentricity: 0.0022486
inclination: 82.5197°
perigee height: 603 km
apogee height: 634 km
right ascension of ascending node: 295.0319°
argument of perigee: 38.4626°
revolutions per day: 14.83388224
mean anomaly at epoch: 29.3545°
orbit number at epoch: 3757

The dashed part of the orbit path shows where the satellite is in the earth's shadow,  

DLR